Home   Weather   Nzérékoré   Past weeks

Flag for Guinea Past Weather in Nzérékoré, Guinea — Yesterday and Last 2 Weeks

Now
90 °F

Partly sunny.


Feels Like: 100 °F
Forecast: N/A
Wind: 8 mph from West

Location: Roberts Field

Current Time: Feb 22, 2017 at 3:47:32 pm

Latest Report: Feb 22, 2017 at 3:00 pm


Visibility: N/A

Pressure: 29.80 "Hg

Humidity: 63%

Dew Point: 75 °F

Location of NzérékoréLocation

Past Weather in Nzérékoré — Graph

°F

Nzérékoré Temperature Yesterday

Maximum temperature yesterday: 91 °F (at 2:00 pm)
Minimum temperature yesterday: 73 °F (at 3:00 am)
Average temperature yesterday: 82 °F

High & Low Weather Summary for the Past Weeks

 TemperatureHumidityPressure
High95 °F (Feb 7, 2:00 pm)100% (Feb 8, 7:30 am)29.95 "Hg (Feb 8, 7:30 am)
Low72 °F (Feb 18, 5:00 am)49% (Feb 14, 3:00 pm)29.68 "Hg (Feb 11, 4:30 pm)
Average82 °F82%29.83 "Hg
* Reported Feb 7 2:00 pm — Feb 22 2:30 pm, Nzérékoré, Weather by CustomWeather, © 2017

Note: Actual official high and low records may vary slightly from our data, if they occured in-between our weather recording intervals... More about our weather records

Advertising

Nzérékoré Weather History for the Previous 24 Hours

Scroll right to see more
 ConditionsComfort  
Time TempWeatherWind HumidityBarometerVisibility
2:30 pm
Wed, Feb 22
91 °FPartly sunny.10 mph67%29.77 "HgN/A
2:00 pm88 °FPartly sunny.7 mph70%29.80 "HgN/A
1:30 pm88 °FPartly sunny.6 mph70%29.83 "HgN/A
1:00 pm90 °FPartly sunny.3 mph59%29.83 "HgN/A
12:30 pm90 °FPartly sunny.3 mph59%29.86 "HgN/A
12:00 pm90 °FPartly sunny.No wind63%29.86 "HgN/A
11:30 am88 °FPartly sunny.No wind70%29.89 "HgN/A
11:00 am88 °FPartly sunny.7 mph70%29.89 "HgN/A
10:30 am86 °FPartly sunny.No wind75%29.89 "HgN/A
10:00 am84 °FPartly sunny.5 mph79%29.89 "HgN/A
9:30 am82 °FPartly sunny.No wind84%29.89 "HgN/A
9:00 am81 °FPartly sunny.No wind89%29.89 "Hg4 mi
8:30 am79 °FFog.No wind94%29.89 "Hg4 mi
8:00 am77 °FFog.No wind94%29.86 "Hg2 mi
7:30 am77 °FFog.No wind94%29.86 "Hg2 mi
7:00 am77 °FFog.No wind94%29.86 "Hg3 mi
6:00 am75 °FPassing clouds.No wind94%29.83 "Hg4 mi
5:30 am75 °FFog.No wind94%29.83 "Hg4 mi
4:00 am75 °FFog.No wind94%29.83 "Hg3 mi
3:00 am75 °FFog.No wind94%29.83 "Hg3 mi
1:00 am77 °FPassing clouds.No wind94%29.89 "Hg4 mi
12:30 am79 °FPassing clouds.No wind94%29.89 "HgN/A
11:30 pm
Tue, Feb 21
79 °FPassing clouds.No wind94%29.89 "HgN/A
11:00 pm79 °FPassing clouds.No wind94%29.89 "HgN/A
10:30 pm79 °FPassing clouds.No wind94%29.89 "HgN/A
10:00 pm79 °FPassing clouds.No wind94%29.89 "HgN/A
9:30 pm79 °FPassing clouds.No wind94%29.89 "HgN/A
9:00 pm81 °FPassing clouds.No wind89%29.89 "HgN/A
8:30 pm81 °FPassing clouds.No wind89%29.86 "HgN/A
8:00 pm81 °FPassing clouds.No wind89%29.86 "HgN/A
7:30 pm82 °FPassing clouds.No wind84%29.83 "HgN/A
7:00 pm82 °FPassing clouds.5 mph84%29.83 "HgN/A
6:30 pm84 °FPassing clouds.9 mph79%29.80 "HgN/A
6:00 pm86 °FPassing clouds.10 mph75%29.80 "HgN/A
5:30 pm86 °FPassing clouds.12 mph70%29.80 "HgN/A
5:00 pm88 °FPassing clouds.14 mph66%29.80 "HgN/A
4:30 pm90 °FPassing clouds.13 mph63%29.80 "HgN/A
4:00 pm90 °FPassing clouds.15 mph63%29.80 "HgN/A
3:30 pm90 °FScattered clouds.14 mph63%29.80 "HgN/A
3:00 pm90 °FScattered clouds.10 mph63%29.80 "HgN/A
Weather by CustomWeather, © 2017

See weather overviewHow to use our weather pages